FW0810 Weather Reports


time (UTC)temp
C
wind
direction
speed
KPH
gust
KPH
rain 1hr
cm
rain 24hr
cm
rain mn
cm
humidity
%
barometer
mb
20260508085141 21 104 1.6 11.3 0.00 0.00 0.00 62 1015.3
20260508084635 21 92 1.6 11.3 0.00 0.00 0.00 63 1015.3
20260508084130 21 86 3.2 11.3 0.00 0.00 0.00 62 1015.2
20260508082611 21 100 3.2 11.3 0.00 0.00 0.00 64 1015.1
20260508082105 21 119 3.2 11.3 0.00 0.00 0.00 64 1015.2
20260508081559 21 69 3.2 11.3 0.00 0.00 0.00 65 1015.2
20260508080559 21 136 3.2 9.7 0.00 0.00 0.00 64 1015.1
20260508075055 20 123 1.6 8.0 0.00 0.00 0.00 66 1015.0
20260508074555 20 115 1.6 9.7 0.00 0.00 0.00 67 1015.0
20260508074055 20 110 1.6 11.3 0.00 0.00 0.00 67 1015.0
20260508073557 20 88 1.6 11.3 0.00 0.00 0.00 67 1015.0
20260508073051 19 84 1.6 8.0 0.00 0.00 0.00 69 1014.8
20260508072551 19 127 1.6 6.4 0.00 0.00 0.00 70 1014.8
20260508071551 18 269 0.0 0.0 0.00 0.00 0.00 76 1014.8
20260508071049 17 270 0.0 0.0 0.00 0.00 0.00 78 1014.7
20260508070549 17 270 0.0 0.0 0.00 0.00 0.00 81 1014.8
20260508070101 16 270 0.0 0.0 0.00 0.00 0.00 83 1014.7
20260508065552 16 270 0.0 0.0 0.00 0.00 0.00 84 1014.7
20260508065049 16 270 0.0 0.0 0.00 0.00 0.00 85 1014.7
20260508064547 16 270 0.0 1.6 0.00 0.00 0.00 85 1014.7
20260508064043 15 276 0.0 4.8 0.00 0.00 0.00 86 1014.7
20260508063557 15 274 0.0 4.8 0.00 0.00 0.00 87 1014.6
20260508063041 15 273 0.0 1.6 0.00 0.00 0.00 87 1014.6
20260508062541 15 272 0.0 0.0 0.00 0.00 0.00 88 1014.6
20260508062041 14 272 0.0 0.0 0.00 0.00 0.00 88 1014.6
20260508061540 14 269 0.0 3.2 0.00 0.00 0.00 89 1014.5
20260508061037 13 269 0.0 3.2 0.00 0.00 0.00 89 1014.6
20260508060551 13 283 0.0 3.2 0.00 0.00 0.00 89 1014.6
20260508060037 13 285 0.0 4.8 0.00 0.00 0.00 89 1014.5
20260508055536 13 288 0.0 4.8 0.00 0.00 0.00 90 1014.5
20260508055035 13 264 0.0 1.6 0.00 0.00 0.00 90 1014.5
20260508054535 12 265 0.0 3.2 0.00 0.00 0.00 91 1014.4
20260508054037 12 266 0.0 6.4 0.00 0.00 0.00 91 1014.4
20260508053529 12 278 0.0 6.4 0.00 0.00 0.00 91 1014.5
20260508053029 12 281 0.0 4.8 0.00 0.00 0.00 91 1014.4
20260508052029 11 262 0.0 6.4 0.00 0.00 0.00 91 1014.4
20260508051531 11 263 1.6 9.7 0.00 0.00 0.00 91 1014.4
20260508051029 11 282 0.0 9.7 0.00 0.00 0.00 91 1014.4
20260508050030 11 283 0.0 4.8 0.00 0.00 0.00 91 1014.3
20260508045530 11 265 0.0 6.4 0.00 0.00 0.00 91 1014.3
20260508045026 11 278 0.0 6.4 0.00 0.00 0.00 91 1014.3
20260508044525 11 278 0.0 4.8 0.00 0.00 0.00 91 1014.3
20260508043525 10 286 0.0 4.8 0.00 0.00 0.00 91 1014.2
20260508043026 10 281 1.6 6.4 0.00 0.00 0.00 91 1014.2
20260508042525 10 279 1.6 8.0 0.00 0.00 0.00 90 1014.2
20260508041028 10 281 0.0 3.2 0.00 0.00 0.00 90 1014.1
20260508040522 10 286 0.0 3.2 0.00 0.00 0.00 91 1014.0
20260508040021 10 278 0.0 3.2 0.00 0.00 0.00 91 1014.1
20260508035523 10 274 1.6 6.4 0.00 0.00 0.00 91 1014.0
20260508034524 10 274 0.0 6.4 0.00 0.00 0.00 91 1014.0
20260508034018 10 279 1.6 6.4 0.00 0.00 0.00 91 1014.0
20260508033019 10 273 0.0 6.4 0.00 0.00 0.00 91 1013.9
20260508032517 10 273 0.0 4.8 0.00 0.00 0.00 90 1014.0
20260508031514 10 278 0.0 6.4 0.00 0.00 0.00 90 1013.9
20260508031012 10 284 1.6 6.4 0.00 0.00 0.00 90 1013.9
20260508030515 10 266 0.0 4.8 0.00 0.00 0.00 91 1013.9
20260508030013 10 278 0.0 3.2 0.00 0.00 0.00 91 1013.9
20260508025512 10 276 0.0 3.2 0.00 0.00 0.00 90 1014.0
20260508025009 10 269 0.0 0.0 0.00 0.00 0.00 90 1014.0
20260508024505 10 268 0.0 6.4 0.00 0.00 0.00 90 1013.9
20260508023958 10 267 0.0 6.4 0.00 0.00 0.00 90 1014.0
20260508023450 10 276 0.0 4.8 0.00 0.00 0.00 90 1014.1
20260508022944 10 280 1.6 8.0 0.00 0.00 0.00 90 1014.1
20260508022441 10 281 1.6 8.0 0.00 0.00 0.00 89 1014.1
20260508021933 10 279 0.0 3.2 0.00 0.00 0.00 89 1014.1
20260508021427 10 277 0.0 6.4 0.00 0.00 0.00 90 1014.1
20260508020920 10 278 0.0 6.4 0.00 0.00 0.00 89 1014.2
20260508020414 10 270 0.0 4.8 0.00 0.00 0.00 90 1014.2
20260508015908 11 266 0.0 3.2 0.00 0.00 0.00 90 1014.4
20260508015403 11 269 0.0 0.0 0.00 0.00 0.00 90 1014.5
20260508014858 11 269 0.0 0.0 0.00 0.00 0.00 90 1014.4
20260508014351 11 269 0.0 4.8 0.00 0.00 0.00 90 1014.5
20260508013844 11 273 0.0 4.8 0.00 0.00 0.00 90 1014.6
20260508013338 11 271 0.0 6.4 0.00 0.00 0.00 90 1014.7
20260508012845 11 278 0.0 6.4 0.00 0.00 0.00 90 1014.6
20260508012328 11 279 0.0 6.4 0.00 0.00 0.00 90 1014.7
20260508011825 11 280 0.0 6.4 0.00 0.00 0.00 90 1014.7
20260508010325 11 276 0.0 4.8 0.00 0.05 0.00 90 1014.9
20260508005820 11 273 0.0 9.7 0.00 0.08 0.00 90 1014.8
20260508005319 11 274 0.0 9.7 0.00 0.08 0.00 90 1014.8
20260508004816 10 274 0.0 4.8 0.00 0.08 0.00 90 1014.9
20260508004315 10 269 0.0 8.0 0.00 0.08 0.00 90 1014.8
20260508003813 10 285 0.0 8.0 0.00 0.08 0.00 90 1014.9
20260508003312 10 274 1.6 8.0 0.00 0.13 0.00 90 1015.0
20260508002811 10 277 1.6 8.0 0.00 0.15 0.00 90 1015.0
20260508002310 10 271 1.6 8.0 0.00 0.15 0.00 89 1015.1
20260508001809 10 274 1.6 8.0 0.00 0.18 0.00 89 1015.1
20260508001308 10 262 1.6 8.0 0.00 0.20 0.00 89 1015.2
20260508000307 11 267 0.0 6.4 0.00 0.23 0.00 89 1015.2
20260507235805 11 270 0.0 1.6 0.00 0.23 0.00 89 1015.2
20260507235307 11 267 0.0 3.2 0.00 0.23 0.00 89 1015.2
20260507233757 11 274 1.6 6.4 0.00 0.23 0.00 89 1015.4
20260507233252 11 270 0.0 6.4 0.00 0.23 0.00 89 1015.4
20260507232754 11 266 1.6 8.0 0.00 0.23 0.00 89 1015.4
20260507232252 11 281 1.6 8.0 0.00 0.25 0.00 88 1015.5
20260507231752 11 272 1.6 8.0 0.00 0.25 0.00 88 1015.5
20260507231251 11 279 0.0 8.0 0.00 0.25 0.00 88 1015.6
20260507230750 11 266 0.0 6.4 0.00 0.25 0.00 87 1015.7
20260507230249 11 270 1.6 8.0 0.00 0.25 0.00 87 1015.7
20260507225748 12 277 0.0 8.0 0.00 0.25 0.00 87 1016.1
20260507225247 12 265 0.0 6.4 0.00 0.25 0.00 88 1016.1
20260507224746 12 266 0.0 6.4 0.00 0.25 0.00 88 1016.3
20260507224246 11 266 0.0 4.8 0.00 0.25 0.00 88 1016.2
20260507223745 11 269 1.6 6.4 0.00 0.25 0.00 88 1016.3
20260507223242 11 263 1.6 6.4 0.00 0.25 0.00 88 1016.4
20260507222745 11 270 0.0 6.4 0.00 0.25 0.00 88 1016.3
20260507222242 11 264 0.0 6.4 0.00 0.25 0.00 88 1016.2
20260507221237 11 276 0.0 6.4 0.00 0.25 0.00 87 1016.1
20260507220749 11 281 1.6 6.4 0.00 0.25 0.00 87 1016.1
20260507215736 12 289 0.0 8.0 0.00 0.25 0.25 86 1016.1
20260507215237 12 272 1.6 8.0 0.00 0.25 0.25 85 1016.2
20260507214736 12 276 1.6 8.0 0.00 0.25 0.25 85 1016.0
20260507214238 12 269 0.0 6.4 0.00 0.25 0.25 85 1016.0
20260507213735 13 269 0.0 0.0 0.00 0.25 0.25 85 1016.0
20260507213232 13 269 0.0 0.0 0.00 0.25 0.25 85 1016.0
20260507212733 13 269 0.0 0.0 0.00 0.25 0.25 85 1016.0
20260507212233 13 269 0.0 0.0 0.00 0.25 0.25 85 1016.1
20260507211731 13 269 0.0 8.0 0.00 0.25 0.25 85 1016.0
20260507211229 13 274 0.0 8.0 0.00 0.25 0.25 85 1016.0
20260507210731 13 274 0.0 4.8 0.00 0.25 0.25 85 1016.0
20260507210228 13 274 1.6 6.4 0.00 0.25 0.25 85 1016.1
20260507205727 13 282 0.0 6.4 0.00 0.25 0.25 84 1016.0
20260507205226 13 266 0.0 1.6 0.00 0.25 0.25 84 1016.0
20260507204727 13 261 0.0 1.6 0.00 0.25 0.25 84 1016.0
20260507204227 13 248 0.0 4.8 0.00 0.25 0.25 84 1016.0
20260507203727 13 246 1.6 4.8 0.00 0.25 0.25 84 1015.8
20260507203226 13 270 1.6 4.8 0.00 0.25 0.25 83 1015.8
20260507202726 14 269 0.0 4.8 0.00 0.25 0.25 84 1015.8
20260507202221 14 264 0.0 0.0 0.00 0.25 0.25 84 1015.8
20260507201714 14 264 0.0 0.0 0.00 0.25 0.25 83 1015.8
20260507201210 14 264 0.0 0.0 0.00 0.25 0.25 83 1015.8
20260507200702 14 264 0.0 0.0 0.00 0.25 0.25 82 1015.8
20260507200157 14 264 0.0 4.8 0.00 0.25 0.25 82 1016.0
20260507195146 15 273 0.0 1.6 0.00 0.25 0.25 81 1015.7
20260507194638 15 273 0.0 6.4 0.00 0.25 0.25 81 1015.7
20260507194133 15 274 0.0 6.4 0.00 0.25 0.25 80 1015.7
20260507193626 15 269 0.0 6.4 0.00 0.25 0.25 80 1015.7
20260507193120 16 262 0.0 4.8 0.00 0.25 0.25 80 1015.7
20260507192615 16 262 0.0 4.8 0.00 0.25 0.25 80 1015.6
20260507192108 16 261 0.0 4.8 0.00 0.25 0.25 79 1015.6
20260507191603 16 265 0.0 4.8 0.00 0.25 0.25 78 1015.6
20260507191056 16 270 0.0 3.2 0.00 0.25 0.25 77 1015.5
20260507190549 16 273 0.0 0.0 0.00 0.25 0.25 76 1015.5
20260507190058 16 273 0.0 0.0 0.00 0.25 0.25 75 1015.5
20260507185540 17 273 0.0 0.0 0.00 0.25 0.25 75 1015.5
20260507185033 17 273 0.0 0.0 0.00 0.25 0.25 74 1015.4
20260507184523 17 274 0.0 1.6 0.00 0.25 0.25 74 1015.4
20260507184018 17 278 0.0 0.0 0.00 0.25 0.25 74 1015.5
20260507183514 18 278 0.0 0.0 0.00 0.25 0.25 73 1015.5
20260507183006 18 281 0.0 4.8 0.00 0.25 0.25 73 1015.6
20260507182500 18 281 0.0 4.8 0.00 0.25 0.25 72 1015.5
20260507181954 18 229 0.0 0.0 0.00 0.25 0.25 70 1015.5
20260507181454 19 229 0.0 0.0 0.00 0.25 0.25 69 1015.5
20260507180944 19 229 0.0 1.6 0.00 0.25 0.25 68 1015.4
20260507180436 20 229 0.0 1.6 0.00 0.25 0.25 67 1015.3
20260507175425 20 224 0.0 0.0 0.00 0.25 0.25 65 1015.3
20260507174921 21 224 0.0 0.0 0.00 0.25 0.25 65 1015.3
20260507174411 21 224 0.0 0.0 0.00 0.25 0.25 63 1015.2
20260507173908 21 224 0.0 0.0 0.00 0.25 0.25 62 1015.2
20260507173400 21 224 0.0 0.0 0.00 0.25 0.25 61 1015.2
20260507172348 22 224 0.0 0.0 0.00 0.25 0.25 60 1015.1
20260507171844 22 224 0.0 0.0 0.00 0.25 0.25 60 1015.1
20260507171337 22 224 0.0 0.0 0.00 0.25 0.25 55 1015.1
20260507170834 22 229 0.0 0.0 0.00 0.25 0.25 53 1015.1
20260507170326 22 229 0.0 0.0 0.00 0.25 0.25 53 1015.1
20260507165826 22 229 0.0 0.0 0.00 0.25 0.25 52 1015.1
20260507165326 22 229 0.0 0.0 0.00 0.25 0.25 53 1015.1
20260507164828 23 229 0.0 1.6 0.00 0.25 0.25 53 1015.1
20260507164324 23 228 0.0 1.6 0.00 0.25 0.25 53 1015.0
20260507163822 23 229 0.0 0.0 0.00 0.25 0.25 53 1015.0
20260507163323 23 228 0.0 4.8 0.00 0.25 0.25 52 1015.0
20260507162822 23 220 0.0 4.8 0.00 0.25 0.25 55 1015.0
20260507162322 22 150 0.0 0.0 0.00 0.25 0.25 56 1015.1
20260507161820 22 134 0.0 0.0 0.00 0.25 0.25 57 1015.0
20260507161322 22 134 0.0 3.2 0.00 0.25 0.25 59 1015.0
20260507160821 22 101 0.0 3.2 0.00 0.25 0.25 61 1015.0
20260507160319 22 101 0.0 3.2 0.00 0.25 0.25 59 1015.1
20260507155318 22 25 0.0 0.0 0.00 0.25 0.25 56 1015.2
20260507154819 22 24 0.0 0.0 0.00 0.25 0.25 54 1015.1
20260507154318 22 24 0.0 0.0 0.00 0.25 0.25 54 1015.1
20260507153316 22 1 0.0 0.0 0.00 0.25 0.25 56 1015.1
20260507152814 22 1 0.0 0.0 0.00 0.25 0.25 55 1015.1
20260507152313 22 0 0.0 0.0 0.00 0.25 0.25 56 1015.2
20260507151813 22 1 0.0 0.0 0.00 0.25 0.25 56 1015.1
20260507151312 23 1 0.0 0.0 0.00 0.25 0.25 54 1015.2
20260507150310 23 1 0.0 0.0 0.00 0.25 0.25 54 1015.2
20260507145810 23 1 0.0 0.0 0.00 0.25 0.25 54 1015.2
20260507145310 23 0 0.0 1.6 0.00 0.25 0.25 55 1015.2
20260507144310 23 80 0.0 0.0 0.00 0.25 0.25 55 1015.3
20260507143810 23 96 0.0 3.2 0.00 0.25 0.25 57 1015.4
20260507143306 22 96 0.0 8.0 0.00 0.25 0.25 57 1015.5
20260507142807 23 95 0.0 8.0 0.00 0.25 0.25 54 1015.5
20260507142308 23 290 0.0 1.6 0.00 0.25 0.25 55 1015.7
20260507141806 23 289 0.0 4.8 0.00 0.25 0.25 56 1015.8
20260507141309 23 289 0.0 4.8 0.00 0.25 0.25 58 1015.8
20260507135806 22 274 0.0 0.0 0.00 0.25 0.25 58 1016.1
20260507135307 22 274 0.0 1.6 0.00 0.25 0.25 57 1016.1
20260507134804 22 274 0.0 8.0 0.00 0.25 0.25 56 1016.2
20260507134303 22 290 0.0 8.0 0.00 0.25 0.25 58 1016.2
20260507133302 22 235 1.6 9.7 0.00 0.25 0.25 58 1016.3
20260507132803 22 285 0.0 9.7 0.00 0.25 0.25 59 1016.3
20260507131802 22 321 0.0 6.4 0.00 0.25 0.25 61 1016.5
20260507131302 22 287 0.0 3.2 0.00 0.25 0.25 61 1016.6
20260507130300 22 219 0.0 4.8 0.00 0.25 0.25 59 1016.6
20260507125758 22 204 0.0 4.8 0.00 0.25 0.25 58 1016.6
20260507124757 22 324 0.0 6.4 0.00 0.25 0.25 57 1016.6
20260507123756 22 262 0.0 6.4 0.00 0.25 0.25 60 1016.6
20260507122757 22 275 0.0 1.6 0.00 0.25 0.25 58 1016.6
20260507122256 22 274 1.6 8.0 0.00 0.25 0.25 58 1016.5
20260507121753 22 329 1.6 8.0 0.00 0.25 0.25 60 1016.6
20260507121251 22 262 0.0 8.0 0.00 0.25 0.25 60 1016.5
20260507120752 22 265 0.0 8.0 0.00 0.25 0.25 58 1016.5
20260507120251 22 317 0.0 8.0 0.00 0.25 0.25 56 1016.6
20260507115248 22 274 0.0 8.0 0.00 0.25 0.25 54 1016.7
20260507114248 22 98 0.0 4.8 0.00 0.25 0.25 54 1016.7
20260507113745 22 205 0.0 8.0 0.00 0.25 0.25 56 1016.7
20260507111742 21 288 3.2 11.3 0.00 0.25 0.25 56 1016.8
20260507111242 21 248 3.2 14.5 0.00 0.25 0.25 56 1016.8
20260507110742 21 249 3.2 14.5 0.00 0.25 0.25 56 1016.8
20260507110241 21 278 1.6 11.3 0.00 0.25 0.25 55 1016.8
20260507105742 21 297 1.6 8.0 0.00 0.25 0.25 56 1016.8
20260507105241 21 255 0.0 8.0 0.00 0.25 0.25 57 1016.9
20260507104742 21 191 1.6 9.7 0.00 0.25 0.25 58 1016.9
20260507104240 21 165 1.6 9.7 0.00 0.25 0.25 61 1016.9
20260507103737 21 289 1.6 9.7 0.00 0.25 0.25 60 1016.9
20260507103236 20 109 0.0 6.4 0.00 0.25 0.25 63 1017.0
20260507102733 21 124 0.0 4.8 0.00 0.25 0.25 65 1017.0
20260507102233 20 139 1.6 4.8 0.00 0.25 0.25 65 1017.0
20260507101736 21 97 1.6 4.8 0.00 0.25 0.25 63 1017.1
20260507100723 21 186 0.0 4.8 0.00 0.25 0.25 66 1017.2
20260507100223 21 167 0.0 4.8 0.00 0.25 0.25 65 1017.2
20260507095223 21 146 3.2 11.3 0.00 0.25 0.25 66 1017.1
20260507094722 21 278 0.0 8.0 0.00 0.25 0.25 66 1017.0
20260507094223 20 137 0.0 9.7 0.00 0.25 0.25 64 1017.2
20260507093722 20 138 0.0 9.7 0.00 0.25 0.25 67 1017.2
20260507092719 20 189 1.6 9.7 0.00 0.25 0.25 67 1017.2
20260507092218 19 278 3.2 9.7 0.00 0.25 0.25 67 1017.3
20260507091716 19 278 3.2 9.7 0.00 0.25 0.25 67 1017.3
20260507091215 20 290 3.2 11.3 0.00 0.25 0.25 70 1017.3
20260507090716 20 275 1.6 11.3 0.00 0.25 0.25 69 1017.4
20260507090215 19 276 1.6 8.0 0.00 0.25 0.25 70 1017.4
20260507085716 20 281 1.6 8.0 0.00 0.25 0.25 72 1017.4